Vancleve, KY

1:11 PM EST on February 22, 2017 (GMT -0500)
Carroll

Weather History for KJKL - December, 2011

Change the Weather History Date:

Tuesday, December 6, 2011

  Actual Average Record
Temperature  
Mean Temperature 49 °F 41 °F  
Max Temperature 56 °F 49 °F 73 °F (1998)
Min Temperature 41 °F 33 °F 7 °F (1984)
Degree Days  
Heating Degree Days 16 24  
Month to date heating degree days 93 141  
Since 1 July heating degree days 810 941  
Cooling Degree Days 0 0  
Month to date cooling degree days 0 0  
Year to date cooling degree days 1255 1154  
Moisture  
Dew Point 45 °F    
Average Humidity 91    
Maximum Humidity 96    
Minimum Humidity 86    
Precipitation  
Precipitation 0.49 in 0.14 in 2.15 in (2013)
Month to date precipitation 0.71 0.84  
Year to date precipitation 56.54 45.00  
Snow  
Snow 0.00 in 0.10 in 1.50 in (1984)
Month to date snowfall 0.0 0.6  
Since 1 July snowfall T 1.2  
Snow Depth 0.00 in    
Sea Level Pressure  
Sea Level Pressure 30.02 in    
Wind  
Wind Speed 2 mph (NW)    
Max Wind Speed 9 mph    
Max Gust Speed 14 mph    
Visibility 2 miles    
Events Fog , Rain    
T = Trace of Precipitation, MM = Missing Value Source: NWS Daily Summary

Daily Weather History Graph

Daily Weather History Graph

Search for Another Location

Airport or City:

Trip Planner

Search our weather history database for the weather conditions in past years. The results will help you decide how hot, cold, wet, or windy it might be!

Date:

Astronomy

Dec. 06, 2011 Rise Set
Actual Time 7:33 AM EST 5:14 PM EST
Civil Twilight 7:04 AM EST 5:43 PM EST
Nautical Twilight 6:32 AM EST 6:16 PM EST
Astronomical Twilight 6:00 AM EST 6:47 PM EST
Moon 2:39 PM EST (12/6) 3:53 AM EST (12/6)
Length of Visible Light 10h 39m
Length of Day
9h 40m
Waxing Gibbous, 86% of the Moon is Illuminated
Dec 6
Waxing Gibbous
Dec 10
Full
Dec 17
Last Quarter
Dec 24
New
Jan 1
First Quarter

Hourly Weather History & Observations

Time (EST) Temp. Windchill Dew Point Humidity Pressure Visibility Wind Dir Wind Speed Gust Speed Precip Events Conditions
12:51 AM 55.4 °F - 51.8 °F 88% 30.00 in 10.0 mi Variable 3.5 mph - 0.00 in   Overcast
12:53 AM 55.0 °F - 52.0 °F 89% 29.99 in 10.0 mi Variable 3.5 mph - 0.00 in Rain Light Rain
1:53 AM 55.9 °F - 52.0 °F 87% 29.98 in 10.0 mi Calm Calm - 0.00 in   Overcast
2:53 AM 55.0 °F - 52.0 °F 89% 29.98 in 7.0 mi NW 3.5 mph - 0.01 in Rain Light Rain
3:30 AM 55.4 °F - 53.6 °F 94% 29.99 in 1.0 mi WNW 3.5 mph - 0.02 in Rain Light Rain
3:43 AM 55.4 °F - 53.6 °F 94% 29.99 in 2.0 mi West 4.6 mph - 0.02 in   Overcast
3:48 AM 55.4 °F - 53.6 °F 94% 29.99 in 2.5 mi Calm Calm - 0.02 in Rain Light Rain
3:53 AM 55.0 °F - 53.1 °F 93% 29.98 in 2.0 mi WSW 3.5 mph - 0.02 in Rain Light Rain
3:59 AM 55.4 °F - 53.6 °F 94% 29.99 in 3.0 mi West 3.5 mph - 0.00 in Rain Light Rain
4:09 AM 55.4 °F - 53.6 °F 94% 29.99 in 1.5 mi Calm Calm - 0.01 in Rain Light Rain
4:17 AM 55.4 °F - 53.6 °F 94% 29.98 in 0.5 mi Calm Calm - 0.01 in Fog , Rain Light Rain
4:23 AM 55.4 °F - 53.6 °F 94% 29.98 in 2.0 mi Calm Calm - 0.01 in Rain Light Rain
4:30 AM 55.4 °F - 53.6 °F 94% 29.98 in 4.0 mi Calm Calm - 0.02 in Rain Light Rain
4:41 AM 55.4 °F - 53.6 °F 94% 29.99 in 1.5 mi Calm Calm - 0.02 in Rain Light Rain
4:53 AM 55.0 °F - 53.1 °F 93% 29.97 in 0.5 mi Calm Calm - 0.02 in Fog Fog
5:12 AM 55.4 °F - 53.6 °F 94% 29.99 in 1.0 mi West 3.5 mph - 0.02 in Rain Light Rain
5:20 AM 55.4 °F - 53.6 °F 94% 29.99 in 0.8 mi Calm Calm - 0.02 in Rain Light Rain
5:53 AM 53.1 °F - 51.1 °F 93% 29.99 in 1.5 mi NW 3.5 mph - 0.04 in Rain Light Rain
5:56 AM 53.6 °F - 51.8 °F 94% 30.00 in 2.0 mi Variable 3.5 mph - 0.00 in Rain Light Rain
6:03 AM 53.6 °F - 51.8 °F 94% 30.00 in 1.5 mi WNW 5.8 mph - 0.00 in Rain Light Rain
6:17 AM 51.8 °F - 48.2 °F 88% 30.01 in 2.0 mi WNW 6.9 mph - 0.02 in Rain Rain
6:37 AM 51.8 °F - 48.2 °F 88% 30.00 in 4.0 mi Calm Calm - 0.04 in Rain Light Rain
6:44 AM 51.8 °F - 48.2 °F 88% 30.00 in 2.5 mi Calm Calm - 0.04 in Rain Light Rain
6:47 AM 51.8 °F - 48.2 °F 88% 30.01 in 1.5 mi Calm Calm - 0.04 in Rain Light Rain
6:53 AM 51.1 °F - 48.9 °F 92% 30.00 in 1.0 mi Calm Calm - 0.05 in Rain Rain
7:01 AM 51.8 °F - 48.2 °F 88% 30.01 in 0.8 mi Calm Calm - 0.05 in Rain Rain
7:07 AM 51.8 °F - 48.2 °F 88% 30.01 in 1.0 mi NNW 3.5 mph - 0.06 in Rain Light Rain
7:14 AM 50.0 °F - 48.2 °F 94% 30.01 in 0.8 mi NNW 4.6 mph - 0.06 in Rain Light Rain
7:25 AM 48.2 °F - 46.4 °F 93% 30.02 in 2.0 mi Variable 4.6 mph - 0.07 in Rain Light Rain
7:33 AM 48.2 °F - 46.4 °F 93% 30.02 in 4.0 mi Calm Calm - N/A Rain Light Rain
7:53 AM 48.0 °F - 46.0 °F 93% 30.02 in 1.8 mi Variable 3.5 mph - 0.08 in Rain Light Rain
8:00 AM 48.2 °F - 44.6 °F 87% 30.03 in 1.2 mi Calm Calm - 0.00 in Rain Light Rain
8:07 AM 46.4 °F 44.3 °F 44.6 °F 93% 30.03 in 2.0 mi Variable 4.6 mph - 0.00 in Rain Light Rain
8:13 AM 46.4 °F 44.3 °F 44.6 °F 93% 30.03 in 1.5 mi NNW 4.6 mph - 0.00 in Rain Light Rain
8:20 AM 46.4 °F 44.3 °F 44.6 °F 93% 30.03 in 1.0 mi Variable 4.6 mph - N/A Rain Rain
8:30 AM 46.4 °F 44.3 °F 44.6 °F 93% 30.03 in 1.2 mi Variable 4.6 mph - 0.02 in Rain Light Rain
8:32 AM 46.4 °F 43.5 °F 44.6 °F 93% 30.03 in 2.5 mi NNE 5.8 mph - 0.02 in Rain Light Rain
8:39 AM 46.4 °F 44.3 °F 44.6 °F 93% 30.03 in 5.0 mi North 4.6 mph - 0.03 in Rain Light Rain
8:48 AM 46.4 °F 45.2 °F 44.6 °F 93% 30.03 in 7.0 mi NE 3.5 mph - 0.03 in   Overcast
8:53 AM 46.9 °F - 44.1 °F 90% 30.03 in 7.0 mi Calm Calm - 0.03 in Rain Light Rain
8:59 AM 46.4 °F - 44.6 °F 93% 30.03 in 6.0 mi Calm Calm - 0.00 in Rain Light Rain
9:32 AM 46.4 °F 45.2 °F 44.6 °F 93% 30.04 in 1.5 mi NNW 3.5 mph - 0.00 in   Overcast
9:41 AM 44.6 °F 41.4 °F 42.8 °F 93% 30.06 in 0.5 mi NW 5.8 mph - 0.00 in Fog , Rain Light Rain
9:53 AM 44.1 °F 41.5 °F 42.1 °F 93% 30.05 in 1.2 mi Variable 4.6 mph - 0.00 in Rain Light Rain
9:57 AM 44.6 °F - 42.8 °F 93% 30.05 in 2.0 mi Calm Calm - N/A Rain Light Rain
10:16 AM 44.6 °F 43.1 °F 42.8 °F 93% 30.04 in 1.8 mi Variable 3.5 mph - 0.01 in Rain Light Rain
10:28 AM 44.6 °F - 42.8 °F 93% 30.04 in 3.0 mi Calm Calm - 0.02 in Rain Light Rain
10:46 AM 44.6 °F - 42.8 °F 93% 30.05 in 1.8 mi Calm Calm - 0.02 in Rain Rain
10:53 AM 45.0 °F - 43.0 °F 93% 30.04 in 1.8 mi Calm Calm - 0.03 in Rain Light Rain
10:57 AM 44.6 °F - 42.8 °F 93% 30.04 in 2.5 mi Calm Calm - 0.01 in Rain Light Rain
11:02 AM 44.6 °F - 42.8 °F 93% 30.04 in 3.0 mi Calm Calm - 0.01 in Rain Light Rain
11:16 AM 46.4 °F - 42.8 °F 87% 30.04 in 6.0 mi Calm Calm - 0.01 in Rain Light Rain
11:23 AM 46.4 °F 45.2 °F 44.6 °F 93% 30.03 in 7.0 mi North 3.5 mph - 0.01 in Rain Light Rain
11:32 AM 46.4 °F 44.3 °F 42.8 °F 87% 30.04 in 6.0 mi NW 4.6 mph - 0.01 in Rain Light Rain
11:39 AM 44.6 °F 43.1 °F 42.8 °F 93% 30.03 in 1.8 mi NNW 3.5 mph - 0.01 in Rain Light Rain
11:46 AM 44.6 °F - 42.8 °F 93% 30.03 in 3.0 mi Calm Calm - 0.01 in   Overcast
11:53 AM 46.0 °F - 44.1 °F 93% 30.02 in 4.0 mi Calm Calm - 0.01 in   Overcast
12:44 PM 46.4 °F 45.2 °F 42.8 °F 87% 30.01 in 1.8 mi NNW 3.5 mph - N/A   Overcast
12:48 PM 46.4 °F - 42.8 °F 87% 30.01 in 0.8 mi Calm Calm - N/A   Overcast
12:53 PM 45.0 °F - 43.0 °F 93% 30.01 in 0.5 mi Calm Calm - N/A Fog Fog
1:53 PM 45.0 °F 43.5 °F 43.0 °F 93% 30.00 in 0.5 mi NNW 3.5 mph - 0.00 in Fog Fog
2:53 PM 44.1 °F - 42.1 °F 93% 30.00 in 0.5 mi Calm Calm - N/A Fog Fog
3:23 PM 44.6 °F 43.1 °F 42.8 °F 93% 30.00 in 1.5 mi WNW 3.5 mph - 0.01 in   Overcast
3:33 PM 44.6 °F 42.2 °F 42.8 °F 93% 30.00 in 2.0 mi Variable 4.6 mph - 0.01 in   Overcast
3:41 PM 44.6 °F 42.2 °F 42.8 °F 93% 30.00 in 1.5 mi WNW 4.6 mph - 0.01 in   Overcast
3:53 PM 44.1 °F 42.5 °F 42.1 °F 93% 30.00 in 2.0 mi WNW 3.5 mph - 0.01 in   Overcast
4:02 PM 44.6 °F - 42.8 °F 93% 30.00 in 3.0 mi Calm Calm - N/A   Overcast
4:11 PM 44.6 °F - 42.8 °F 93% 30.00 in 1.8 mi Calm Calm - N/A   Overcast
4:16 PM 44.6 °F - 42.8 °F 93% 30.01 in 0.8 mi Calm Calm - N/A   Overcast
4:53 PM 43.0 °F 39.5 °F 41.0 °F 93% 30.03 in 0.2 mi Variable 5.8 mph - N/A Fog Fog
5:06 PM 42.8 °F 39.3 °F 41.0 °F 93% 30.03 in 1.5 mi West 5.8 mph - N/A   Overcast
5:14 PM 42.8 °F 40.1 °F 41.0 °F 93% 30.03 in 2.0 mi Variable 4.6 mph - N/A   Overcast
5:53 PM 42.1 °F 40.2 °F 39.9 °F 92% 30.05 in 2.5 mi WSW 3.5 mph - 0.00 in Rain Light Rain
6:04 PM 42.8 °F 39.3 °F 39.2 °F 87% 30.06 in 4.0 mi West 5.8 mph - 0.01 in   Overcast
6:19 PM 42.8 °F 39.3 °F 39.2 °F 87% 30.05 in 1.8 mi West 5.8 mph - 0.01 in   Overcast
6:26 PM 42.8 °F 40.1 °F 39.2 °F 87% 30.05 in 1.0 mi Variable 4.6 mph - 0.01 in   Mist
6:34 PM 42.8 °F 39.3 °F 39.2 °F 87% 30.05 in 2.0 mi WNW 5.8 mph - 0.01 in   Overcast
6:53 PM 41.0 °F 37.1 °F 39.0 °F 93% 30.06 in 2.5 mi WNW 5.8 mph - 0.01 in   Overcast
7:00 PM 41.0 °F 39.0 °F 39.2 °F 93% 30.05 in 3.0 mi Variable 3.5 mph - N/A   Overcast
7:53 PM 41.0 °F - 39.0 °F 93% 30.04 in 10.0 mi Calm Calm - N/A   Overcast
8:19 PM 42.8 °F - 39.2 °F 87% 30.01 in 1.8 mi Calm Calm - N/A   Overcast
8:28 PM 41.0 °F - 39.2 °F 93% 30.00 in 3.0 mi Calm Calm - N/A   Overcast
8:48 PM 42.8 °F - 39.2 °F 87% 30.01 in 1.8 mi Calm Calm - N/A   Overcast
8:53 PM 42.1 °F - 39.0 °F 89% 30.02 in 1.2 mi Calm Calm - N/A   Overcast
9:21 PM 42.8 °F - 39.2 °F 87% 30.03 in 0.5 mi Calm Calm - N/A Fog Fog
9:53 PM 42.1 °F 39.2 °F 39.0 °F 89% 30.09 in 0.2 mi Variable 4.6 mph - N/A Fog Fog
10:20 PM 42.8 °F 41.1 °F 39.2 °F 87% 30.08 in 1.0 mi Variable 3.5 mph - 0.00 in Rain Light Rain
10:28 PM 41.0 °F - 39.2 °F 93% 30.05 in 0.5 mi Calm Calm - 0.00 in Fog , Rain Light Rain
10:39 PM 41.0 °F - 39.2 °F 93% 30.04 in 1.8 mi Calm Calm - 0.02 in Rain Rain
10:49 PM 41.0 °F 39.0 °F 39.2 °F 93% 30.04 in 1.0 mi NW 3.5 mph - 0.04 in Rain Light Rain
10:53 PM 41.0 °F 38.0 °F 39.0 °F 93% 30.04 in 1.2 mi NW 4.6 mph - 0.05 in Rain Light Rain
10:55 PM 41.0 °F 39.0 °F 39.2 °F 93% 30.03 in 2.0 mi NW 3.5 mph - 0.00 in Rain Light Rain
10:58 PM 41.0 °F - 39.2 °F 93% 30.02 in 1.5 mi Calm Calm - 0.00 in Rain Light Rain
11:14 PM 41.0 °F - 39.2 °F 93% 29.99 in 1.2 mi Calm Calm - 0.02 in Rain Rain
11:19 PM 41.0 °F - 39.2 °F 93% 30.00 in 0.5 mi Calm Calm - 0.03 in Fog , Rain Rain
11:24 PM 41.0 °F - 39.2 °F 93% 30.01 in 0.5 mi Calm Calm - 0.04 in Fog , Rain Rain
11:30 PM 41.0 °F - 39.2 °F 93% 30.01 in 1.8 mi Calm Calm - 0.05 in Rain Rain
11:33 PM 41.0 °F 39.0 °F 39.2 °F 93% 30.01 in 3.0 mi NNW 3.5 mph - 0.06 in Rain Rain
11:42 PM 41.0 °F - 39.2 °F 93% 30.00 in 1.8 mi Calm Calm - 0.08 in Rain Rain
11:53 PM 41.0 °F 39.0 °F 39.0 °F 93% 30.01 in 2.0 mi Variable 3.5 mph - 0.11 in Rain Rain